GFSSGP_925_rhum_216.txt.gz
RH
20 21 25 19 18 16 12 7 5 9 10 8 9 12 14 17 24 42 29 28 45 56 44 42 41 42 44 48 51 49 48 50 46 39 42 45 48 49 47 51 48 44 46 42 36 40 42 50 55
23 21 12 13 20 13 10 4 7 7 10 9 10 9 16 23 23 29 34 31 44 58 48 44 42 42 44 48 51 54 51 54 50 41 44 49 49 48 47 46 46 45 43 41 39 42 51 57 60
20 20 14 16 13 12 8 6 7 8 11 11 10 10 16 22 22 28 34 31 42 52 61 54 43 43 46 49 54 57 54 58 52 44 48 51 50 47 44 44 46 58 56 53 46 44 50 59 64
19 14 11 14 13 7 6 8 7 7 10 8 8 16 20 16 19 29 32 32 38 48 53 61 45 45 46 50 56 58 57 60 54 46 52 53 50 48 42 43 48 62 73 61 48 47 49 58 64
15 11 13 12 8 5 6 8 8 7 9 7 8 14 22 24 26 32 33 31 36 44 50 55 45 48 48 50 55 56 59 59 55 48 56 52 51 48 46 46 52 56 67 58 50 50 49 51 61
14 11 14 10 8 6 7 7 8 8 7 7 8 14 22 23 25 30 32 35 36 47 57 58 49 50 50 50 53 54 57 58 54 56 54 51 53 50 54 58 56 52 52 53 55 54 54 52 52
14 14 13 8 7 5 6 7 9 7 7 8 7 10 22 21 26 29 33 38 38 51 70 74 56 53 52 52 52 52 55 57 58 58 51 49 52 61 69 65 63 58 55 54 54 54 53 52 51
10 11 12 10 9 6 6 8 8 8 8 8 7 10 20 19 28 29 35 41 46 52 70 82 72 56 56 56 55 54 56 58 59 54 51 52 56 64 74 71 65 64 55 52 49 49 48 45 43
9 12 13 11 9 7 4 8 8 8 8 9 8 10 15 23 27 32 38 47 55 60 73 82 82 72 65 63 58 57 55 55 55 56 58 62 64 66 81 76 78 65 63 59 52 50 47 44 40
12 13 12 7 6 5 4 8 8 9 10 10 9 9 13 18 26 28 35 42 51 59 66 81 82 83 82 76 80 62 62 61 62 63 65 69 73 82 83 83 80 83 69 65 64 60 56 51 44
13 13 10 7 5 5 6 6 6 8 10 10 11 12 12 13 21 25 24 29 41 53 62 74 77 78 78 69 80 72 81 82 78 83 86 70 80 80 78 78 80 80 79 71 68 67 64 60 54
14 11 10 8 6 6 6 6 6 6 7 8 8 9 10 13 14 14 18 18 19 46 55 71 76 77 74 71 79 84 83 83 86 83 83 85 80 81 84 82 83 86 87 81 84 81 75 72 63
12 11 10 9 8 7 6 7 7 7 5 6 7 9 12 12 12 11 11 14 17 42 50 67 74 82 79 73 75 78 80 77 81 81 83 85 84 86 86 86 82 84 81 79 79 78 79 76 71
11 10 10 10 9 8 8 8 7 7 6 6 8 8 10 11 12 12 12 12 14 22 48 63 72 80 82 80 78 86 88 78 85 86 86 87 84 86 87 84 88 80 82 79 81 79 76 75 75
14 16 13 12 10 11 10 10 11 7 7 7 7 7 9 10 10 12 12 13 15 16 47 58 70 76 80 81 87 85 87 90 79 80 81 88 90 86 86 85 84 85 80 78 78 78 77 78 82
19 18 22 15 12 11 12 16 10 9 9 9 8 8 9 10 10 9 11 14 15 16 35 58 67 74 81 79 86 87 90 92 85 81 77 86 90 88 85 87 85 82 84 87 88 88 84 84 83
25 28 23 18 12 11 12 15 10 10 10 10 9 8 8 9 10 10 12 14 16 15 29 57 63 74 81 78 83 81 84 90 88 83 86 87 86 83 88 88 86 84 83 88 92 87 88 87 90
30 24 22 20 14 12 12 11 9 9 10 11 9 8 8 10 10 11 14 17 18 16 21 56 62 72 80 78 76 81 84 86 89 88 86 81 89 91 91 90 87 83 84 89 89 89 91 85 77
21 18 16 14 12 14 15 14 11 9 9 11 10 9 10 11 10 11 17 20 22 20 20 52 67 70 80 81 87 89 91 91 88 88 84 83 83 82 86 93 88 86 83 80 72 63 55 53 50
21 22 21 17 13 13 14 14 12 11 11 12 12 10 11 12 10 14 26 28 32 29 27 37 70 77 79 88 94 91 94 89 84 86 84 87 86 86 89 81 67 54 53 50 51 51 52 54 50
21 22 23 22 17 17 18 19 16 13 11 11 12 12 10 12 12 15 31 32 35 37 34 41 83 91 85 90 97 91 91 89 96 97 96 89 81 66 55 54 49 49 50 45 44 46 46 49 48
22 16 17 20 22 29 19 34 19 14 12 12 13 13 12 11 12 13 25 34 36 40 42 67 89 96 98 96 99 97 93 93 89 81 67 62 57 49 46 44 45 46 46 44 44 44 52 51 57
21 16 17 18 22 25 23 29 22 15 13 11 11 11 13 12 11 14 17 28 34 40 46 62 82 95 100 99 98 90 80 69 68 56 53 46 43 43 40 39 42 46 48 49 50 49 50 57 62
16 19 21 22 22 34 25 28 26 19 15 12 10 9 9 11 12 14 14 26 34 40 58 74 98 100 100 99 94 86 72 61 50 46 40 41 36 37 38 42 45 49 51 53 56 58 60 63 66
20 24 37 42 40 38 23 28 26 18 15 14 14 12 10 14 15 20 18 28 39 50 82 89 90 89 97 95 85 75 52 48 43 41 33 32 33 34 36 41 47 53 56 58 62 66 69 73 74
25 26 38 50 50 42 26 35 25 17 15 14 13 13 13 13 21 23 24 35 46 54 79 78 77 75 73 75 55 54 44 38 36 31 32 34 34 38 43 50 55 59 63 68 72 76 80 81 80
29 30 23 35 33 46 34 25 19 16 16 15 14 13 14 14 19 24 26 38 46 58 69 67 64 63 58 50 45 38 33 32 32 34 38 41 43 45 48 54 63 69 72 75 76 79 81 82 84
24 23 39 39 63 62 41 32 29 22 18 16 16 16 17 16 16 19 24 40 50 55 61 60 58 53 46 46 42 34 32 33 39 44 43 47 53 58 62 66 70 71 74 75 77 79 82 83 84
26 31 31 34 47 69 62 47 29 28 22 22 20 17 20 19 18 24 29 42 50 56 58 56 50 46 43 42 40 38 39 42 46 48 52 55 62 66 69 72 73 74 75 77 80 83 85 88 89
28 29 31 57 60 59 59 58 25 24 22 20 19 17 16 18 19 29 38 44 51 55 56 53 46 41 42 43 42 43 46 49 50 53 58 64 68 74 77 76 76 78 80 82 88 92 92 91 91

GFSSGP_925_rhum_219.txt.gz
RH
14 18 26 29 32 34 33 22 14 11 12 12 14 24 32 32 36 52 44 33 42 38 43 42 40 40 43 46 44 42 43 46 39 38 40 37 35 39 45 44 42 46 52 50 52 45 47 52 52
18 16 21 31 33 37 28 16 13 13 12 13 13 24 29 39 38 41 54 52 44 38 41 40 41 40 42 47 46 45 45 49 43 40 41 38 37 43 47 43 38 38 37 41 46 48 49 55 57
20 23 30 30 33 34 29 13 14 15 14 12 14 22 26 39 37 38 46 48 45 41 41 41 42 40 43 48 48 49 47 52 48 42 43 40 39 45 48 44 40 39 38 40 44 45 49 51 57
22 26 28 22 25 20 16 11 10 15 13 8 25 29 27 30 34 32 48 49 48 46 43 42 42 41 44 48 49 51 49 55 52 45 47 43 40 46 48 48 47 42 43 42 42 44 49 52 53
22 28 26 24 21 14 10 9 9 10 12 8 10 32 39 35 33 32 44 48 50 52 45 44 42 43 46 48 50 52 52 56 54 49 51 46 42 46 51 49 46 53 47 43 44 44 45 49 52
28 24 28 28 19 12 10 10 9 8 11 9 16 32 38 35 34 33 35 44 50 53 51 45 43 44 47 49 52 53 54 57 54 51 55 49 48 48 51 55 51 47 45 46 46 47 48 48 48
24 27 30 25 19 13 9 10 10 9 9 9 9 34 36 35 34 33 34 40 49 52 54 54 45 46 48 50 52 53 55 56 54 51 60 53 51 53 50 54 56 46 45 47 48 48 46 48 50
17 21 23 19 18 15 10 9 10 9 12 9 8 28 37 36 33 36 39 46 54 58 57 58 51 49 50 51 51 51 52 55 54 54 58 56 53 56 55 55 54 48 49 46 46 45 44 44 42
17 24 22 19 15 12 9 10 9 8 11 10 13 29 30 34 36 41 49 66 72 72 70 66 58 53 52 52 52 52 53 57 58 60 56 55 57 59 63 60 58 55 54 50 48 47 45 42 39
21 28 22 15 12 12 9 10 11 10 12 11 19 26 31 35 41 52 59 63 69 78 75 69 60 55 56 56 53 55 58 61 63 58 54 54 60 64 62 64 67 72 64 60 57 54 53 50 47
18 22 18 14 11 11 10 9 8 9 13 12 15 21 26 34 42 47 54 58 58 68 76 75 61 57 56 59 56 57 57 58 60 57 55 56 62 77 81 80 81 78 77 70 64 63 62 61 57
24 17 16 14 11 12 11 9 9 8 10 10 12 16 19 24 36 39 45 51 62 70 79 78 75 71 64 73 68 58 56 58 60 64 62 62 63 79 88 84 84 80 78 77 70 73 77 74 68
22 18 14 12 13 13 12 12 10 9 8 8 8 11 14 21 22 26 26 30 52 66 78 77 79 80 77 80 79 75 63 61 62 68 74 67 69 75 86 86 84 82 84 81 78 79 79 80 81
17 16 15 13 13 13 14 13 10 9 9 8 8 10 13 17 17 14 12 12 42 60 72 75 77 79 78 81 81 79 79 75 75 72 74 78 79 80 84 87 87 88 89 85 81 83 82 81 80
18 22 20 18 16 16 14 16 15 11 10 10 10 10 10 13 14 16 11 12 27 55 67 74 74 74 75 78 83 84 84 80 84 81 78 84 88 86 84 86 86 83 83 85 84 84 82 82 79
31 30 32 19 18 17 16 22 16 13 12 12 11 12 11 10 13 12 11 12 15 50 68 73 77 75 75 75 82 77 86 83 84 89 88 87 86 85 86 88 87 83 84 84 84 84 85 84 84
40 47 34 25 18 18 18 19 16 13 13 14 13 12 12 13 15 10 11 14 15 47 65 75 80 81 79 82 83 79 81 84 86 88 81 89 89 88 87 87 89 88 87 88 88 90 89 85 84
42 40 35 32 21 19 19 18 14 14 13 12 13 16 14 11 13 13 13 13 15 22 53 72 80 84 81 84 87 84 87 87 88 84 80 81 85 88 89 87 88 88 86 85 86 84 82 83 78
34 32 29 23 20 20 18 17 17 14 13 14 15 17 15 15 14 12 14 15 17 18 49 72 83 87 83 90 92 91 94 89 82 82 84 82 86 88 86 92 90 86 83 81 87 88 86 66 55
35 36 32 24 20 18 18 18 18 17 15 15 16 17 16 15 14 21 27 21 20 22 53 73 81 86 84 86 90 93 92 90 81 86 87 77 78 82 86 88 87 87 86 64 59 54 53 52 49
30 34 31 28 22 20 21 24 22 18 17 15 14 15 15 16 16 26 39 32 26 26 43 71 78 86 86 87 86 83 84 84 87 88 87 83 83 86 88 86 73 63 54 51 47 45 46 48 47
29 21 24 25 27 33 22 34 25 22 21 17 15 14 13 11 14 20 38 45 35 30 31 67 73 85 87 88 87 83 91 96 93 97 88 87 93 75 67 56 51 48 44 42 44 44 48 53 52
31 23 22 22 26 26 25 35 26 20 21 19 15 14 13 11 11 13 36 38 40 39 43 77 79 88 92 91 87 86 94 93 98 98 97 86 66 57 52 49 40 37 41 42 46 47 47 58 64
28 28 26 26 28 40 27 28 28 27 24 20 16 14 14 15 13 12 26 34 45 46 63 83 92 98 96 95 92 88 92 88 86 79 61 52 49 42 39 38 38 42 45 48 52 55 59 62 66
32 37 52 50 45 46 26 30 26 23 19 18 18 16 16 17 18 18 29 40 47 64 85 95 99 100 99 98 96 91 86 83 74 62 54 44 41 38 39 42 45 47 54 56 60 62 68 77 81
37 37 53 65 57 44 27 35 26 18 18 17 17 17 17 18 18 27 33 41 54 90 96 98 100 100 99 100 98 90 78 74 68 55 46 39 37 38 43 46 50 53 58 61 61 70 76 77 76
38 42 30 43 38 50 38 31 22 18 19 20 19 17 17 17 19 28 46 53 73 91 94 96 96 100 100 96 91 81 73 63 50 40 35 34 37 43 45 48 52 60 62 65 61 65 75 79 82
39 30 47 53 79 69 44 37 40 29 25 22 21 19 18 20 23 34 49 58 67 87 89 86 84 83 88 87 82 65 56 48 36 35 36 39 43 44 48 53 61 61 65 71 76 80 83 83 82
35 36 36 38 58 90 75 50 28 30 28 32 31 19 22 25 23 29 40 55 69 86 81 77 73 70 62 62 59 52 46 37 37 38 42 43 48 49 55 61 64 69 73 77 78 79 81 82 89
49 44 43 57 58 72 71 62 28 27 25 23 26 25 24 22 23 29 52 68 72 77 76 71 65 61 54 49 43 41 42 41 42 44 47 50 54 59 60 66 70 70 74 78 79 82 86 89 89

GFSSGP_925_rhum_222.txt.gz
RH
18 21 19 29 34 40 40 29 19 15 11 13 21 30 36 34 46 58 52 43 48 36 40 44 43 44 45 39 38 40 40 36 37 36 34 34 38 40 40 38 41 48 47 42 36 38 42 48 54
20 20 24 35 37 43 34 24 16 16 12 26 29 34 37 48 43 68 59 53 41 33 40 43 43 44 45 42 40 42 44 39 37 37 36 36 41 42 41 39 39 38 38 38 39 41 43 44 49
20 26 32 31 40 42 34 19 16 13 16 16 27 27 37 48 50 54 50 55 38 35 40 42 43 42 46 46 42 44 47 44 39 39 37 38 41 41 39 38 42 41 40 39 39 40 42 43 45
21 29 35 27 30 27 22 17 15 13 13 25 28 35 34 34 39 40 52 42 37 39 42 43 42 42 45 48 44 47 48 49 42 40 38 39 43 43 39 39 43 39 38 38 40 40 40 39 41
24 35 33 30 27 20 15 13 11 12 14 18 31 40 46 37 36 44 50 46 38 42 43 43 43 42 44 47 46 50 48 52 46 41 42 41 41 43 40 41 43 41 40 39 39 39 40 39 38
30 32 34 35 26 20 16 12 10 10 12 32 43 45 46 42 54 55 52 46 37 40 44 44 44 42 44 46 48 51 50 54 50 44 46 42 40 38 40 40 40 42 40 42 42 40 41 41 39
27 32 36 31 27 22 16 12 13 10 10 12 33 46 49 42 52 55 52 48 42 42 44 45 45 45 46 48 50 52 52 56 53 47 49 45 43 40 39 39 39 39 44 47 45 46 46 46 45
25 28 26 27 24 22 13 10 9 12 12 11 28 47 54 44 44 52 56 56 54 50 45 43 45 47 50 53 52 54 55 57 56 50 50 49 46 44 42 40 41 41 44 49 48 46 46 44 42
20 33 38 27 21 18 12 11 10 9 12 19 24 34 36 43 46 60 74 75 68 63 55 48 45 48 50 52 56 58 58 59 58 54 56 55 50 48 48 45 45 45 46 46 48 46 45 42 39
25 38 32 23 18 17 13 14 12 11 14 33 44 38 43 52 58 73 82 90 77 70 64 58 51 48 51 53 56 59 60 62 61 58 63 58 54 52 52 53 53 53 52 52 51 51 50 49 47
25 29 22 20 19 17 16 15 9 10 12 25 48 46 48 51 58 65 73 74 66 61 70 66 60 52 52 56 55 56 58 60 62 61 65 59 59 61 60 60 63 67 72 67 60 58 57 58 60
28 23 20 18 17 18 15 13 13 10 10 9 23 38 44 47 54 59 64 69 74 78 71 70 66 57 53 56 55 54 57 61 63 66 63 60 65 68 68 70 73 76 77 76 73 67 65 73 69
28 24 22 19 18 17 16 16 15 13 10 10 9 16 34 46 50 51 54 58 64 83 77 70 70 60 54 60 56 56 55 56 57 60 59 59 64 70 80 84 84 83 82 81 82 77 74 77 78
22 22 22 19 18 17 16 16 15 14 10 10 9 9 14 24 44 47 50 55 65 72 79 70 72 60 56 61 56 55 54 53 55 57 58 58 62 67 78 90 88 86 85 84 83 81 81 82 83
23 26 22 20 21 21 17 21 19 14 13 12 11 11 11 15 21 28 33 38 51 63 70 74 73 72 63 61 64 70 66 58 57 59 61 61 63 69 75 89 89 87 87 89 88 87 89 89 87
33 34 40 22 20 21 19 26 20 15 15 14 14 13 12 12 13 14 14 16 22 53 75 78 80 79 78 75 78 81 79 73 72 70 69 67 69 79 82 87 88 89 91 90 89 89 87 85 85
44 45 44 31 22 20 22 21 18 15 15 16 16 15 14 14 13 11 10 12 24 39 63 82 83 81 83 81 84 87 82 82 79 77 79 79 79 85 90 87 84 89 89 88 88 86 86 87 88
45 46 43 39 24 22 23 22 18 17 17 17 17 16 16 15 14 10 9 9 18 34 61 75 82 86 86 89 88 89 86 85 82 85 91 86 88 90 88 88 90 89 88 89 89 88 90 88 83
39 34 34 30 27 27 26 26 21 18 17 17 16 16 18 16 13 12 11 12 30 57 73 79 87 90 89 93 94 92 91 89 84 84 91 92 88 85 88 90 92 94 88 87 87 87 86 91 90
43 48 46 36 27 25 25 23 19 18 16 18 16 14 14 18 15 17 20 23 36 62 70 81 84 89 88 89 92 95 96 91 85 84 89 86 81 85 86 91 94 94 91 90 92 94 84 62 56
30 36 37 33 24 23 26 27 23 20 21 20 20 18 18 18 18 17 32 27 32 67 74 78 81 82 88 92 97 98 100 98 94 83 81 81 82 82 85 88 93 93 93 86 81 65 55 49 51
36 26 28 29 36 41 26 31 20 20 21 20 22 20 19 17 16 17 35 39 33 53 66 76 79 86 90 93 98 98 97 98 96 90 85 88 85 84 92 93 92 92 68 56 51 47 42 42 50
39 29 27 29 34 37 32 40 29 21 22 21 19 21 19 17 15 15 37 33 31 34 67 73 80 92 93 97 97 99 96 94 89 92 86 88 90 93 91 82 71 59 51 46 42 42 42 45 52
38 40 38 35 35 47 32 33 31 26 23 24 21 20 18 17 16 15 17 31 33 34 57 80 89 98 100 98 97 95 93 90 96 96 95 97 82 74 65 60 54 49 40 38 41 45 49 51 55
47 54 76 74 65 60 32 35 28 23 18 19 24 23 20 18 19 19 18 35 38 55 72 90 99 99 100 100 100 93 89 88 92 94 94 78 62 55 52 47 42 40 40 44 47 49 57 64 71
56 57 72 89 67 54 34 40 29 19 17 19 22 18 20 22 23 23 24 30 36 58 85 97 99 99 100 100 100 96 90 90 90 89 88 73 64 53 45 40 40 44 45 46 52 52 66 73 74
57 67 47 62 55 73 46 34 23 19 19 18 18 19 18 18 22 21 22 37 46 64 90 96 95 99 100 100 98 94 91 87 85 77 73 62 51 42 43 42 44 50 51 52 59 58 62 70 72
46 40 66 67 88 94 78 46 38 28 24 21 21 20 20 23 22 23 25 56 69 86 97 100 100 99 100 96 94 94 88 83 78 72 60 50 43 44 46 48 51 56 59 55 57 64 72 74 77
54 53 55 61 68 78 78 62 32 30 28 32 28 22 23 22 25 25 36 56 81 92 100 100 100 100 99 99 97 89 78 74 70 62 51 45 44 49 50 52 54 54 56 61 67 73 74 73 77
54 67 66 99 82 100 89 71 35 27 26 35 35 31 32 27 28 31 48 78 93 95 98 98 99 100 99 96 84 76 70 65 58 52 45 42 47 49 43 52 53 60 64 69 70 70 74 79 80

GFSSGP_925_rhum_228.txt.gz
RH
20 22 24 28 30 37 32 29 24 19 17 20 35 37 33 30 35 36 60 59 39 42 42 43 35 35 33 31 34 32 28 31 36 40 41 45 48 55 55 58 60 58 52 44 47 50 54 58 62
18 24 26 35 33 22 10 26 23 18 15 27 35 36 34 32 46 74 65 62 41 38 42 43 38 35 35 33 34 36 31 30 35 40 44 46 49 50 53 54 55 50 38 36 50 53 57 62 65
19 28 31 37 45 22 14 24 18 18 15 27 32 32 39 35 56 66 57 53 46 41 41 43 42 36 37 36 35 37 36 32 32 36 38 39 42 41 42 43 40 35 34 37 47 57 59 60 65
22 30 36 39 39 34 26 22 17 17 13 19 31 31 37 41 55 48 51 50 46 43 42 43 45 39 37 39 38 37 39 36 32 32 35 36 36 35 34 32 32 32 34 37 42 51 58 60 59
28 40 42 39 38 28 23 20 17 17 14 14 35 37 42 57 52 51 53 59 49 44 42 44 45 45 39 40 41 40 40 40 36 33 34 36 34 33 33 33 33 33 35 37 42 43 51 57 59
33 39 46 42 33 24 25 22 18 14 13 14 38 47 46 70 58 67 62 59 50 40 44 44 46 48 44 41 42 44 42 42 41 37 35 36 35 34 35 35 35 35 35 36 40 40 40 45 50
35 41 44 39 34 27 23 15 13 13 15 14 42 47 50 71 68 64 65 58 48 42 46 46 49 50 49 44 44 46 47 44 44 43 38 37 36 36 36 37 36 38 38 36 37 39 40 38 40
38 35 35 36 32 26 19 16 12 14 15 13 41 51 50 63 74 71 68 60 52 48 47 48 50 50 53 50 46 48 50 49 46 47 44 40 39 38 36 37 38 39 42 41 39 38 38 40 39
28 40 47 34 29 22 17 18 17 14 12 15 39 43 46 70 74 71 74 73 66 62 55 50 49 52 55 56 52 52 53 55 51 50 50 46 44 42 41 38 39 40 43 45 44 42 40 37 36
32 45 41 31 25 20 19 21 18 16 17 16 38 56 73 79 77 83 86 88 83 72 63 52 48 51 58 62 60 56 58 61 60 56 54 52 48 45 44 44 42 42 45 47 47 45 44 42 40
32 34 31 26 25 21 22 24 18 15 18 13 17 53 76 77 77 78 77 70 64 53 58 55 50 49 56 69 67 65 67 66 67 62 58 56 54 53 51 50 49 47 49 49 49 48 48 49 50
33 31 26 23 22 22 23 19 19 16 18 15 15 47 71 77 79 76 72 70 61 60 48 48 47 43 44 54 64 67 74 71 72 69 64 60 58 56 54 54 52 53 53 54 56 56 56 58 62
36 30 26 25 25 26 22 24 22 20 17 16 15 56 68 73 73 69 69 72 71 60 50 45 51 49 49 54 58 70 81 75 71 70 66 62 60 57 54 55 57 57 60 62 68 70 71 71 68
29 28 26 25 24 23 23 23 21 20 17 15 13 35 65 66 66 67 69 69 69 68 59 56 56 58 54 55 56 59 72 75 73 67 64 63 60 61 57 56 59 62 63 67 75 77 82 80 77
34 40 35 30 28 26 24 26 29 18 15 17 16 15 58 62 60 65 62 66 60 62 68 67 66 61 58 56 58 59 59 62 63 62 63 64 62 64 61 59 60 62 71 79 84 85 86 85 84
43 41 48 19 26 27 21 20 17 20 20 20 19 18 16 38 57 55 55 57 58 68 69 65 70 70 69 62 57 61 62 60 58 60 62 66 65 66 66 64 63 64 76 84 89 90 90 90 89
54 64 56 35 22 24 25 19 17 19 21 22 21 21 19 16 20 43 49 52 54 55 64 69 71 66 66 76 78 71 65 64 59 59 61 64 68 70 69 66 64 67 78 89 91 91 95 95 94
58 67 48 47 30 27 29 28 22 20 20 23 24 22 22 21 18 13 22 41 49 52 61 63 66 70 78 83 86 84 78 71 64 59 58 62 66 69 71 70 69 70 80 93 95 95 97 98 97
50 50 51 40 35 34 34 35 30 25 25 25 25 25 24 23 18 15 13 11 12 42 51 64 75 72 85 93 94 97 96 88 74 67 60 59 62 67 70 75 75 79 87 92 90 97 100 100 100
50 56 60 46 37 35 34 34 28 24 22 22 23 23 21 21 20 19 16 14 12 12 26 49 62 80 80 88 90 91 95 94 77 76 71 71 71 74 74 76 77 86 93 93 95 97 100 100 98
50 53 52 54 37 34 29 32 26 20 23 18 19 23 22 22 21 20 20 20 16 15 14 20 48 72 78 90 97 95 95 92 100 100 94 85 81 80 77 78 82 87 95 92 92 97 100 96 83
56 42 41 38 33 49 24 37 23 17 17 19 15 16 25 25 23 23 22 21 25 23 28 39 55 80 92 98 100 96 91 92 96 98 100 94 87 86 88 88 88 92 95 94 92 94 95 93 76
48 35 37 36 37 35 34 42 25 20 22 18 15 14 24 26 25 22 20 18 14 18 22 52 74 91 100 100 98 100 94 90 90 99 100 100 94 90 85 84 85 92 94 94 94 98 96 83 70
42 48 49 44 50 62 41 37 28 24 22 19 19 20 17 24 23 23 20 17 16 18 27 56 80 90 100 100 100 100 96 93 96 100 100 100 95 88 83 85 90 93 95 95 95 91 77 65 52
66 64 85 88 87 71 42 48 37 26 19 22 24 26 26 27 26 25 22 21 19 19 27 56 83 94 99 100 99 100 99 94 94 100 97 100 95 90 90 94 93 97 96 94 87 72 59 50 38
71 74 72 86 74 61 44 53 38 26 23 20 20 25 25 25 25 25 24 24 21 21 26 37 68 82 93 100 100 99 100 99 98 98 99 98 91 88 92 97 98 98 95 85 67 56 49 41 44
63 84 56 72 62 79 60 48 32 26 25 27 26 23 24 24 26 27 27 28 23 21 22 26 41 63 89 96 100 98 99 99 100 100 98 96 92 90 90 93 94 94 81 68 57 48 41 43 48
59 51 83 89 93 87 60 54 47 37 34 29 27 24 23 24 24 24 30 29 22 19 18 24 34 50 58 88 99 98 100 100 100 99 100 97 92 88 89 90 86 75 62 53 48 48 46 46 51
80 78 75 94 96 87 84 58 35 33 41 49 42 39 39 35 30 27 27 28 29 30 35 36 49 71 86 95 99 100 100 100 99 100 100 97 91 88 87 80 69 60 53 53 52 50 44 50 53
96 95 94 98 85 99 99 90 57 58 62 52 49 36 37 48 45 42 40 41 51 54 62 72 74 85 94 100 100 100 100 100 100 100 99 96 89 87 83 72 64 58 62 58 51 50 48 52 58

GFSSGP_925_rhum_231.txt.gz
RH
18 21 26 25 21 21 15 16 21 16 15 16 30 30 27 24 26 24 67 64 47 54 45 36 32 34 31 26 27 40 52 58 57 46 48 51 56 56 55 54 49 50 50 43 43 49 50 54 52
18 25 26 25 20 13 6 18 19 15 12 14 23 31 28 26 38 58 62 65 41 47 48 41 32 32 33 30 25 25 30 36 39 42 48 52 55 59 59 57 52 49 40 44 45 54 59 58 56
19 27 22 24 26 11 10 19 17 14 13 23 30 29 27 29 45 49 60 57 48 54 53 40 35 32 34 33 29 25 28 33 37 41 45 49 52 56 58 57 52 40 40 53 56 54 59 67 67
24 25 26 26 22 23 17 19 18 14 11 16 28 28 34 47 47 55 64 56 61 62 57 37 36 34 34 35 34 29 28 32 36 39 42 45 47 51 52 50 41 38 43 55 50 54 56 69 75
28 27 29 31 28 24 22 18 17 15 12 12 17 29 32 60 70 71 65 64 62 65 60 40 37 37 35 36 36 34 31 30 33 37 38 39 39 40 41 38 39 42 44 45 47 51 52 54 65
24 28 26 20 23 22 19 18 18 13 12 12 28 36 38 71 72 76 64 63 58 46 49 45 39 38 38 37 38 39 36 32 31 33 34 34 34 34 35 34 35 37 40 45 48 50 51 49 49
23 29 25 28 25 23 19 16 13 13 13 12 14 36 44 58 76 78 72 66 56 53 50 50 45 40 40 41 40 40 40 37 33 32 33 32 33 35 35 35 35 35 36 40 45 50 51 52 50
25 25 32 28 21 16 17 14 12 14 14 12 32 36 34 54 81 86 86 87 83 63 55 52 53 47 43 44 44 43 43 42 40 36 34 34 34 36 37 36 36 35 37 38 41 45 48 49 48
24 28 28 22 26 18 16 17 16 14 13 13 29 41 47 74 83 84 86 89 88 85 67 58 57 57 52 47 48 49 48 46 46 44 40 40 44 41 40 39 37 38 38 39 40 42 44 46 47
24 30 28 25 21 18 17 19 17 15 15 14 14 45 71 75 73 72 72 72 78 86 77 65 66 63 61 58 52 56 56 55 55 55 51 48 44 43 45 42 41 41 42 42 43 43 42 41 40
28 27 27 24 22 19 20 19 17 16 14 14 15 16 64 70 66 66 64 63 64 70 80 68 66 67 64 72 63 74 77 73 65 58 57 54 51 50 54 61 58 52 49 52 47 45 45 45 45
30 28 24 20 21 20 22 18 17 17 16 14 14 14 42 67 63 60 60 57 58 68 74 80 67 61 69 81 65 74 85 79 83 70 61 59 58 55 54 57 67 54 55 50 48 49 48 50 53
33 28 25 23 21 22 22 21 20 20 16 14 14 15 49 58 59 60 57 57 62 66 72 84 72 79 83 88 86 88 84 80 80 75 69 64 61 56 55 53 53 61 54 55 53 57 60 62 62
30 29 24 22 22 20 20 18 20 15 15 16 15 13 40 59 59 60 64 60 60 58 66 73 74 79 87 81 88 91 89 89 87 83 68 68 62 58 56 55 55 58 58 60 65 70 73 80 78
30 31 30 27 27 24 23 20 23 14 14 14 14 14 14 48 56 59 56 60 56 58 62 63 62 71 77 73 91 95 93 93 91 88 72 68 67 62 59 58 57 59 60 64 69 78 82 86 84
39 39 29 14 18 21 17 15 14 16 15 14 14 14 15 16 51 53 55 58 53 58 67 68 56 53 60 72 90 93 95 98 95 89 72 67 67 65 66 68 60 59 64 68 77 84 90 96 96
45 24 42 22 18 19 17 14 13 15 17 17 17 16 15 15 23 49 52 56 55 59 68 72 64 62 58 68 83 91 97 94 95 93 85 73 70 66 68 76 64 60 67 75 84 91 96 99 99
34 49 36 33 26 24 26 20 18 20 18 18 16 17 18 17 15 15 32 51 53 58 66 75 76 69 78 84 87 92 95 96 96 96 94 77 71 68 72 84 72 65 77 94 96 98 98 100 100
44 32 36 37 31 33 30 27 22 22 22 20 18 19 18 19 16 15 18 15 30 55 64 68 81 72 88 91 89 89 92 92 95 95 94 77 67 68 73 90 84 73 90 92 84 99 99 100 99
47 51 52 45 38 38 32 30 27 23 22 21 20 19 19 19 18 17 18 16 17 15 26 56 66 79 87 85 84 80 85 89 91 94 93 89 77 69 75 87 92 92 90 96 99 96 99 100 100
52 51 45 42 39 34 36 34 28 23 20 19 18 17 16 18 18 18 19 20 17 17 14 20 49 69 80 83 89 91 93 95 99 94 92 93 93 80 70 76 91 95 94 97 89 88 91 98 99
55 42 43 44 47 47 27 38 24 20 19 18 16 16 18 18 19 17 18 20 23 15 14 16 22 58 81 90 88 86 83 83 88 86 91 98 97 87 84 85 95 96 95 99 95 82 86 96 93
51 38 43 43 45 44 39 42 31 22 23 18 16 15 16 19 22 20 20 19 20 19 15 16 23 35 67 90 86 92 84 79 78 88 92 99 99 98 96 93 95 98 98 99 94 89 92 91 91
39 40 39 39 42 55 39 42 32 24 23 19 15 14 18 18 21 22 21 21 21 21 20 26 55 57 69 87 91 92 90 83 88 94 94 99 100 100 99 89 89 95 93 92 93 94 90 90 90
44 52 70 83 79 57 31 38 31 20 20 17 20 20 21 24 26 27 23 21 22 24 23 52 70 71 87 94 94 94 92 92 94 93 95 99 99 100 100 92 93 94 90 88 91 96 97 96 79
64 55 57 63 53 49 38 47 32 21 17 17 17 19 20 21 24 24 24 26 24 20 20 32 68 72 86 97 96 95 96 97 96 93 93 100 100 100 100 98 94 93 94 92 97 100 95 76 60
65 77 46 58 55 67 47 37 29 24 23 21 21 22 23 23 23 24 24 27 26 27 21 24 49 68 80 88 96 94 94 100 99 97 97 100 100 98 98 96 90 92 97 96 99 91 74 56 50
57 46 75 74 88 83 48 43 36 33 37 41 44 39 34 35 36 37 34 30 28 28 28 24 27 40 58 80 90 94 95 99 99 100 98 100 95 97 99 97 94 98 99 99 94 73 61 53 49
84 74 67 85 74 72 65 47 44 40 33 42 31 26 31 33 35 40 39 38 39 44 45 50 56 55 52 63 83 94 97 98 100 100 100 99 92 100 98 96 97 99 99 89 72 62 54 53 58
88 93 93 97 93 97 94 83 55 44 38 35 28 26 28 32 34 37 34 34 33 38 47 64 82 83 75 71 80 94 96 99 100 100 100 97 100 99 95 96 97 97 89 74 60 56 65 56 50

GFSSGP_925_rhum_234.txt.gz
RH
24 20 22 16 12 8 5 4 9 12 11 10 20 19 16 18 19 25 44 43 35 43 47 35 35 36 41 50 56 60 61 56 53 54 52 52 59 67 71 71 64 52 44 39 37 41 48 53 58
20 21 17 11 9 6 4 6 9 11 10 10 11 22 21 18 22 41 46 45 43 48 50 50 32 31 32 38 44 54 58 57 61 53 48 53 62 69 69 63 59 48 41 39 45 49 49 49 55
21 21 11 9 7 6 4 7 11 10 11 15 15 20 18 20 30 34 42 49 45 49 49 53 34 31 29 33 40 51 56 60 50 42 44 51 58 61 59 55 51 45 39 47 53 51 50 51 55
15 14 11 11 7 5 8 11 11 10 10 15 17 22 21 33 31 34 48 45 48 48 48 55 35 33 29 28 35 41 43 38 36 37 43 48 55 57 60 56 50 43 50 59 51 56 58 58 60
15 11 11 10 7 7 10 11 10 11 10 10 12 19 21 39 46 45 46 44 45 46 49 42 35 35 32 27 26 28 30 31 33 37 43 48 53 56 58 54 44 47 55 49 53 56 69 71 71
13 12 10 8 6 9 9 9 10 10 9 10 13 20 23 46 46 45 45 43 45 48 53 59 35 35 35 32 28 26 28 30 33 36 39 42 46 49 49 44 43 45 45 48 50 53 60 72 74
16 13 9 6 5 7 8 8 9 8 9 10 14 23 30 39 47 47 46 45 48 54 58 63 60 40 37 36 33 29 27 29 30 33 35 37 39 41 38 39 39 40 42 45 49 50 53 54 57
14 13 12 10 9 8 9 10 8 9 10 11 23 25 29 35 53 51 49 50 54 63 64 65 62 62 66 45 40 36 31 30 31 34 36 36 38 39 38 38 40 40 43 46 48 50 52 51 52
14 16 12 11 10 8 9 9 9 10 11 10 18 22 33 48 56 59 57 59 62 67 69 68 64 62 61 64 59 44 40 36 35 38 38 40 58 60 46 59 40 39 42 45 47 48 48 49 48
18 15 11 8 9 10 9 9 11 11 10 10 12 14 36 52 54 53 52 55 59 62 68 73 70 65 64 59 69 70 70 67 66 65 60 59 56 59 59 65 46 42 42 44 46 46 46 44 46
18 16 10 14 14 11 10 10 10 11 10 10 11 12 14 39 46 44 42 42 50 55 59 69 74 74 70 58 67 62 65 65 69 69 71 60 64 64 60 65 69 68 47 59 52 50 52 46 43
22 15 14 13 14 15 14 11 11 11 9 9 9 10 11 20 38 38 37 35 40 47 51 62 70 78 78 61 65 59 60 64 69 72 78 66 69 69 60 58 59 62 61 56 58 53 50 58 58
22 17 15 15 14 14 12 12 12 10 9 8 9 9 10 14 25 39 36 34 36 40 47 59 68 74 78 72 65 62 62 64 67 74 81 70 65 68 63 61 60 62 59 62 60 56 61 63 64
13 16 16 16 17 16 17 15 13 12 9 10 8 8 8 13 20 36 39 36 34 36 43 57 64 71 74 73 71 70 68 63 71 70 75 81 69 68 66 65 66 64 62 61 61 61 65 68 68
16 20 18 18 17 18 15 17 15 10 9 9 9 8 8 10 20 34 42 37 35 37 40 55 64 70 74 75 74 74 67 68 71 70 80 85 80 72 67 65 65 65 68 68 69 73 76 74 77
20 19 18 11 15 18 17 11 6 7 8 8 7 7 7 8 12 28 40 41 36 34 35 50 58 65 74 73 73 70 66 71 68 71 77 86 85 76 78 65 65 65 70 73 71 74 74 74 72
21 14 17 12 9 12 16 10 6 6 10 10 8 7 6 7 9 19 37 40 35 32 36 44 56 60 70 72 69 70 69 74 69 72 75 87 87 84 76 66 64 72 72 71 71 72 73 73 79
20 19 14 12 12 13 12 12 6 11 10 9 7 6 7 7 8 10 26 37 36 31 36 44 55 60 66 67 70 66 68 74 73 74 76 80 85 85 84 69 69 78 70 70 71 71 77 79 80
18 16 19 14 15 21 16 12 10 9 12 12 10 9 9 9 8 10 12 24 39 40 40 48 54 62 68 68 66 64 65 68 74 72 74 77 80 84 84 72 74 81 70 68 73 74 82 90 87
28 28 24 17 20 30 18 18 15 15 16 14 11 9 9 9 9 10 12 15 19 23 42 49 54 61 70 64 62 59 58 61 67 70 73 78 80 82 82 75 70 77 70 72 76 76 92 95 93
39 34 28 29 27 27 29 28 20 15 14 15 16 13 10 10 10 10 11 13 15 19 22 26 35 46 63 69 63 62 61 63 65 68 73 77 80 81 83 79 71 74 75 70 76 79 88 87 99
46 31 30 27 31 33 21 30 18 14 14 15 14 12 11 11 11 11 11 12 14 16 19 23 23 28 40 60 58 62 60 58 60 66 67 71 82 81 80 79 78 76 76 71 76 87 81 79 83
40 27 33 35 36 36 32 37 26 18 18 15 13 12 12 12 13 12 11 10 10 11 14 24 25 23 26 45 64 63 66 61 58 69 70 75 80 83 80 82 81 80 81 79 78 89 93 94 87
36 40 39 38 38 53 33 30 25 20 19 17 14 14 13 13 14 12 11 11 10 10 14 20 27 24 27 33 59 67 64 64 57 61 70 73 78 84 82 81 82 85 86 82 84 93 98 88 87
46 51 68 70 59 47 21 28 25 14 13 13 16 14 14 15 18 18 15 15 15 15 18 25 26 26 30 35 47 64 66 66 63 60 69 69 76 91 86 84 87 91 88 86 92 98 95 97 89
39 43 44 53 38 31 20 28 18 13 12 11 13 14 14 17 15 17 17 17 18 21 22 23 27 30 32 46 52 59 63 66 68 66 66 71 76 91 93 94 92 93 94 93 98 99 99 100 95
30 46 31 37 28 38 22 20 19 15 15 16 16 16 20 24 25 24 25 26 23 21 21 28 29 31 39 51 60 64 67 70 73 71 73 76 82 85 98 99 98 98 98 100 100 100 97 98 94
66 48 55 56 76 67 31 24 21 25 33 32 28 28 28 27 28 31 28 30 32 33 33 35 34 28 31 46 57 64 67 72 78 85 85 88 92 96 95 100 99 99 100 100 100 100 100 96 84
67 75 99 82 67 72 52 31 21 36 33 28 27 24 25 27 28 29 25 24 26 31 34 41 48 47 42 37 39 53 60 65 74 86 91 94 98 96 96 100 100 99 100 100 100 97 94 84 81
53 84 88 94 99 97 76 52 39 38 34 31 26 22 20 22 22 22 22 22 25 26 35 36 45 53 59 59 54 49 58 68 76 85 93 99 99 98 97 100 100 98 98 100 99 95 86 82 71

GFSSGP_925_rhum_237.txt.gz
RH
17 19 12 10 11 8 6 4 2 6 7 6 13 13 12 12 16 34 28 26 24 32 43 37 39 45 50 57 59 60 62 57 48 48 50 52 57 68 77 72 63 57 55 53 46 46 54 58 60
21 11 10 9 10 6 5 3 3 4 8 8 8 17 16 15 19 30 29 29 29 34 45 57 38 44 52 57 58 62 64 53 50 52 50 50 55 66 71 73 62 57 47 50 55 57 55 60 62
22 12 10 9 8 5 4 2 3 6 7 10 8 12 14 16 21 27 32 29 31 33 39 56 37 43 49 54 58 62 63 53 54 54 48 48 55 63 69 64 58 55 48 49 51 54 58 60 61
13 9 9 11 8 4 3 4 6 7 7 11 10 17 14 24 22 26 31 31 34 33 34 40 31 36 41 51 57 60 60 55 58 49 45 49 54 59 60 61 55 47 43 51 49 50 53 59 62
11 8 10 8 6 4 3 5 8 8 8 9 11 14 18 26 29 33 32 32 34 33 35 33 28 30 34 39 51 56 56 59 50 41 43 46 52 53 56 56 52 48 49 44 48 49 53 59 62
11 9 9 8 6 4 4 5 8 8 8 8 10 11 25 33 30 32 31 34 34 34 43 50 32 31 33 37 45 50 53 47 38 38 41 46 46 50 54 54 47 54 54 45 48 53 64 65 72
12 11 9 7 5 4 4 5 7 8 8 8 9 14 27 29 31 31 32 35 35 38 51 55 54 36 33 35 37 38 37 35 35 36 40 43 46 50 55 49 46 47 47 46 48 53 65 73 74
11 10 11 7 5 4 3 5 5 7 7 9 12 14 23 32 33 32 33 35 38 44 55 59 59 60 61 40 32 30 32 34 35 38 41 43 46 50 50 46 49 46 46 46 49 50 51 54 56
10 13 12 10 7 5 4 7 5 5 7 8 13 21 28 38 35 36 36 38 43 50 56 60 58 58 58 59 50 36 38 40 41 45 46 45 65 62 54 57 52 46 46 46 49 50 50 51 50
14 14 11 7 6 5 4 6 5 7 8 8 14 19 30 37 36 36 36 39 45 51 56 61 58 58 58 53 61 63 63 65 66 68 64 62 53 59 61 60 65 45 46 48 49 49 49 47 51
14 15 8 6 5 6 6 6 6 7 7 7 11 12 21 35 37 37 35 37 41 49 53 59 62 59 56 48 62 57 57 57 61 62 69 55 50 56 55 65 74 70 50 64 55 54 58 50 40
16 13 11 8 6 9 11 8 6 6 6 5 7 10 10 19 33 33 32 32 36 43 48 56 60 64 62 48 56 52 53 57 59 60 65 54 52 56 53 54 57 59 59 54 57 53 50 44 44
13 13 11 9 8 10 10 10 9 8 6 6 6 8 9 10 18 29 28 25 30 37 41 51 59 66 66 57 53 52 50 55 57 61 65 58 56 57 56 50 52 52 51 51 52 48 51 50 54
8 11 12 11 10 12 13 11 9 8 7 6 6 7 8 9 10 19 27 24 24 30 36 47 54 64 67 62 56 58 53 51 56 58 64 71 62 57 57 52 53 51 50 51 53 51 53 56 54
7 10 11 12 12 12 12 15 13 9 8 7 7 6 7 7 8 15 26 27 23 25 30 45 51 61 66 67 60 60 54 53 56 58 64 74 70 61 60 55 54 52 53 55 56 56 58 58 61
10 9 15 11 11 11 12 16 7 7 8 8 7 6 6 7 8 12 21 30 26 24 27 41 48 56 66 66 63 61 56 59 54 58 60 70 75 67 67 57 56 54 56 59 58 59 60 60 57
15 14 14 12 8 11 14 15 8 4 6 7 6 6 5 6 8 9 16 29 30 26 24 36 48 51 63 64 62 61 59 59 56 56 58 68 75 75 67 62 56 58 58 59 61 60 60 60 62
24 18 12 11 8 7 10 14 10 6 5 8 7 6 5 5 6 7 11 24 31 27 25 31 46 52 60 61 64 58 57 59 57 55 58 62 75 76 76 66 60 61 61 60 62 60 59 59 68
26 21 16 11 7 8 9 9 8 7 6 8 7 6 5 5 5 6 9 20 30 30 27 29 40 50 56 59 60 55 55 55 59 57 58 63 72 77 78 72 65 65 64 62 63 64 64 66 69
27 27 22 13 10 9 11 14 10 7 7 6 8 8 6 6 5 6 8 11 30 32 29 30 38 50 55 55 54 52 49 51 55 61 61 67 71 77 79 75 64 67 66 66 64 67 65 70 73
29 27 24 19 15 13 15 21 17 10 8 7 8 9 7 6 7 7 7 11 15 27 37 35 36 44 55 55 54 51 50 49 52 58 63 66 70 74 78 77 70 64 71 68 69 71 70 78 82
32 22 23 25 24 28 19 30 18 14 12 11 11 12 12 10 7 7 7 8 12 16 20 23 32 40 46 58 55 52 49 50 51 55 59 63 71 73 75 76 76 67 72 69 71 72 73 80 81
30 21 23 26 32 33 28 31 20 14 13 11 11 12 10 10 9 9 9 8 9 12 15 18 21 21 24 37 58 57 56 48 46 53 56 61 67 75 75 78 76 74 71 74 68 73 78 81 76
23 27 28 29 28 40 31 30 26 19 17 15 12 11 11 10 10 9 10 10 10 9 10 14 20 21 20 23 37 55 56 57 49 46 54 60 65 73 78 77 80 78 76 74 74 75 81 82 81
37 43 81 86 90 51 23 26 24 15 13 13 14 12 13 12 12 13 13 12 11 10 10 12 16 18 21 24 27 45 59 58 60 53 55 65 67 70 79 80 80 81 80 77 79 79 86 87 86
34 54 70 68 41 33 20 25 18 12 11 11 10 12 13 15 15 14 14 14 13 14 17 15 16 18 19 21 30 33 48 60 61 59 56 62 67 71 75 82 81 82 82 81 82 83 89 92 90
24 46 41 50 34 32 19 16 12 10 11 12 12 13 16 19 18 19 20 22 26 24 20 22 24 22 22 23 28 39 42 55 59 60 59 58 63 66 74 80 83 83 82 83 84 86 93 95 96
59 39 59 77 92 75 33 19 17 14 12 13 23 25 24 24 24 25 24 24 27 28 30 32 32 27 23 28 35 44 50 54 61 62 64 65 64 68 74 86 85 84 84 88 88 93 99 99 98
81 71 82 88 58 59 49 30 15 30 25 23 24 22 24 26 26 26 24 23 25 28 31 34 39 38 34 30 30 38 46 51 58 63 69 71 72 76 85 93 90 90 92 97 99 100 98 99 98
50 91 87 96 96 81 76 50 30 32 29 26 24 21 20 20 20 20 21 22 24 24 27 35 40 42 46 48 46 43 41 49 57 63 70 78 80 90 91 92 98 99 100 100 100 99 100 98 90